Change the Weather History Date:

Monday, March 17, 2014

  Actual Average (KRST) Record (KRST)
Temperature  
Mean Temperature 26 °F 33 °F  
Max Temperature 34 °F 41 °F 81 °F (2012)
Min Temperature 19 °F 25 °F -10 °F (1909)
Degree Days  
Heating Degree Days 39 32  
Month to date heating degree days 610  
Since 1 July heating degree days 6471  
Cooling Degree Days 0 0  
Month to date cooling degree days 0  
Year to date cooling degree days 0  
Moisture  
Dew Point 15 °F    
Average Humidity 64    
Maximum Humidity 73    
Minimum Humidity 55    
Precipitation  
Precipitation 0.00 in 0.07 in 0.58 in (1986)
Month to date precipitation 0.88  
Year to date precipitation 2.57  
Snow  
Snow 0.00 in 0.30 in 8.20 in (1942)
Month to date snowfall 5.6  
Since 1 July snowfall 45.5  
Snow Depth -    
Sea Level Pressure  
Sea Level Pressure 29.74 in    
Wind  
Wind Speed 12 mph (SE)    
Max Wind Speed 22 mph    
Max Gust Speed 32 mph    
Visibility 10 miles    
Events      
T = Trace of Precipitation, MM = Missing Value Source: NWS Daily Summary

Daily Weather History Graph

Daily Weather History Graph

Search for Another Location

Airport or City:

Trip Planner

Search our weather history database for the weather conditions in past years. The results will help you decide how hot, cold, wet, or windy it might be!

Date:

Astronomy

Mar. 17, 2014 Rise Set
Actual Time 7:18 AM CDT 7:18 PM CDT
Civil Twilight 6:49 AM CDT 7:47 PM CDT
Nautical Twilight 6:16 AM CDT 8:21 PM CDT
Astronomical Twilight 5:41 AM CDT 8:55 PM CDT
Moon 8:39 PM CDT (3/17) 7:31 AM CDT (3/17)
Length of Visible Light 12h 57m
Length of Day
12h 00m
Full, 99% of the Moon is Illuminated
Mar 17
Full
Mar 23
Last Quarter
Mar 30
New
Apr 7
First Quarter
Apr 15
Full

Hourly Weather History & Observations

Time (CDT) Temp. Windchill Dew Point Humidity Pressure Visibility Wind Dir Wind Speed Gust Speed Precip Events Conditions
12:12 AM 19.8 °F 9.9 °F 6.3 °F 56% 30.04 in 10.0 mi SSE 8.1 mph - N/A   Overcast
12:32 AM 20.1 °F 10.3 °F 6.4 °F 55% 30.03 in 10.0 mi SSE 8.1 mph - N/A   Overcast
12:53 AM 20.1 °F 8.8 °F 7.3 °F 58% 30.02 in 10.0 mi SSE 10.4 mph 17.3 mph N/A   Overcast
1:12 AM 20.8 °F 12.1 °F 8.4 °F 59% 30.01 in 10.0 mi SSE 6.9 mph - N/A   Overcast
1:32 AM 20.5 °F 8.0 °F 8.6 °F 60% 29.99 in 10.0 mi South 12.7 mph 21.9 mph N/A   Overcast
1:53 AM 20.3 °F 8.3 °F 8.6 °F 61% 29.99 in 10.0 mi South 11.5 mph 20.7 mph N/A   Overcast
2:12 AM 20.3 °F 9.8 °F 8.8 °F 61% 29.97 in 10.0 mi SSE 9.2 mph 19.6 mph N/A   Overcast
2:32 AM 20.5 °F 9.2 °F 9.5 °F 63% 29.97 in 10.0 mi SSE 10.4 mph 17.3 mph N/A   Overcast
2:53 AM 20.3 °F 7.7 °F 9.5 °F 63% 29.95 in 10.0 mi SSE 12.7 mph 20.7 mph N/A   Overcast
3:12 AM 19.9 °F 7.3 °F 10.4 °F 67% 29.92 in 10.0 mi SSE 12.7 mph 17.3 mph N/A   Overcast
3:32 AM 19.4 °F 5.0 °F 10.4 °F 68% 29.91 in 10.0 mi SSE 16.1 mph 23.0 mph N/A   Overcast
3:53 AM 19.4 °F 6.0 °F 10.4 °F 68% 29.90 in 10.0 mi SE 13.8 mph 25.3 mph N/A   Overcast
4:12 AM 19.4 °F 5.5 °F 10.8 °F 69% 29.89 in 10.0 mi SSE 15.0 mph 20.7 mph N/A   Overcast
4:32 AM 19.8 °F 7.7 °F 11.1 °F 69% 29.88 in 10.0 mi SSE 11.5 mph 23.0 mph N/A   Overcast
4:53 AM 19.9 °F 7.3 °F 11.3 °F 69% 29.87 in 10.0 mi SSE 12.7 mph 24.2 mph N/A   Overcast
5:12 AM 19.9 °F 7.9 °F 11.3 °F 69% 29.86 in 10.0 mi SE 11.5 mph 20.7 mph N/A   Overcast
5:32 AM 19.9 °F 7.3 °F 11.3 °F 69% 29.85 in 10.0 mi SSE 12.7 mph 21.9 mph N/A   Overcast
5:53 AM 19.4 °F 6.6 °F 11.3 °F 71% 29.83 in 10.0 mi SSE 12.7 mph 27.6 mph N/A   Mostly Cloudy
6:12 AM 19.4 °F 5.0 °F 11.3 °F 71% 29.82 in 10.0 mi SSE 16.1 mph 25.3 mph N/A   Mostly Cloudy
6:32 AM 19.8 °F 5.4 °F 11.7 °F 71% 29.82 in 10.0 mi SE 16.1 mph 23.0 mph N/A   Overcast
6:53 AM 19.9 °F 6.7 °F 12.0 °F 71% 29.80 in 10.0 mi SSE 13.8 mph 26.5 mph N/A   Overcast
7:12 AM 19.9 °F 4.8 °F 12.0 °F 71% 29.80 in 10.0 mi SE 18.4 mph 25.3 mph N/A   Overcast
7:33 AM 19.9 °F 5.2 °F 12.0 °F 71% 29.79 in 10.0 mi SSE 17.3 mph 24.2 mph N/A   Overcast
7:53 AM 19.9 °F 6.2 °F 11.8 °F 71% 29.79 in 10.0 mi SSE 15.0 mph 26.5 mph N/A   Overcast
8:12 AM 20.1 °F 7.5 °F 11.7 °F 70% 29.78 in 10.0 mi SSE 12.7 mph 25.3 mph N/A   Overcast
8:32 AM 20.3 °F 5.7 °F 10.9 °F 67% 29.77 in 10.0 mi SE 17.3 mph 27.6 mph N/A   Overcast
8:53 AM 20.3 °F 6.6 °F 10.8 °F 67% 29.77 in 10.0 mi SSE 15.0 mph 28.8 mph N/A   Overcast
9:12 AM 20.7 °F 7.1 °F 11.3 °F 67% 29.76 in 10.0 mi SSE 15.0 mph 27.6 mph N/A   Overcast
9:33 AM 21.0 °F 5.4 °F 11.8 °F 68% 29.74 in 10.0 mi SSE 20.7 mph 29.9 mph N/A   Overcast
9:53 AM 21.7 °F 8.0 °F 12.6 °F 68% 29.74 in 10.0 mi SSE 16.1 mph 27.6 mph N/A   Overcast
10:12 AM 21.2 °F 6.4 °F 13.1 °F 71% 29.71 in 10.0 mi SSE 18.4 mph 28.8 mph N/A   Overcast
10:33 AM 21.6 °F 8.2 °F 14.0 °F 73% 29.71 in 10.0 mi SSE 15.0 mph 26.5 mph N/A   Overcast
10:52 AM 21.9 °F 7.3 °F 14.5 °F 73% 29.69 in 10.0 mi SSE 18.4 mph 28.8 mph N/A   Overcast
11:12 AM 22.5 °F 6.9 °F 14.7 °F 72% 29.68 in 10.0 mi SE 21.9 mph 32.2 mph N/A   Overcast
11:33 AM 23.9 °F 9.9 °F 14.7 °F 68% 29.67 in 10.0 mi SSE 18.4 mph 32.2 mph N/A   Mostly Cloudy
11:52 AM 24.6 °F 11.7 °F 15.1 °F 67% 29.67 in 10.0 mi SSE 16.1 mph 28.8 mph N/A   Scattered Clouds
12:12 PM 26.2 °F 14.2 °F 16.0 °F 65% 29.67 in 10.0 mi SE 15.0 mph 25.3 mph N/A   Mostly Cloudy
12:33 PM 26.1 °F 14.5 °F 16.0 °F 66% 29.66 in 10.0 mi SE 13.8 mph 25.3 mph N/A   Mostly Cloudy
12:52 PM 26.6 °F 14.7 °F 16.3 °F 65% 29.67 in 10.0 mi SE 15.0 mph 24.2 mph N/A   Overcast
1:12 PM 28.0 °F 15.7 °F 16.9 °F 63% 29.66 in 10.0 mi SSE 17.3 mph 23.0 mph N/A   Overcast
1:33 PM 27.9 °F 16.3 °F 16.9 °F 63% 29.66 in 10.0 mi SSE 15.0 mph 26.5 mph N/A   Mostly Cloudy
1:52 PM 28.4 °F 19.1 °F 17.6 °F 64% 29.66 in 10.0 mi South 10.4 mph 24.2 mph N/A   Mostly Cloudy
2:12 PM 29.3 °F 19.6 °F 18.0 °F 63% 29.64 in 10.0 mi SSE 11.5 mph 24.2 mph N/A   Mostly Cloudy
2:33 PM 30.0 °F 19.1 °F 18.1 °F 61% 29.63 in 10.0 mi SSE 15.0 mph 24.2 mph N/A   Mostly Cloudy
2:52 PM 30.9 °F 19.4 °F 18.5 °F 60% 29.63 in 10.0 mi SSE 17.3 mph 24.2 mph N/A   Mostly Cloudy
3:12 PM 31.1 °F 20.5 °F 19.2 °F 61% 29.62 in 10.0 mi SSE 15.0 mph 24.2 mph N/A   Scattered Clouds
3:33 PM 31.6 °F 21.6 °F 19.6 °F 61% 29.62 in 10.0 mi SE 13.8 mph 23.0 mph N/A   Mostly Cloudy
3:52 PM 32.2 °F 23.8 °F 20.1 °F 61% 29.61 in 10.0 mi SSE 10.4 mph 24.2 mph N/A   Mostly Cloudy
4:12 PM 32.2 °F 23.8 °F 20.3 °F 62% 29.61 in 10.0 mi SE 10.4 mph 24.2 mph N/A   Scattered Clouds
4:33 PM 33.1 °F 23.4 °F 20.3 °F 59% 29.60 in 10.0 mi SSE 13.8 mph 21.9 mph N/A   Scattered Clouds
4:52 PM 33.1 °F 23.9 °F 20.5 °F 60% 29.60 in 10.0 mi SE 12.7 mph 20.7 mph N/A   Clear
5:12 PM 33.3 °F 24.1 °F 21.0 °F 61% 29.61 in 10.0 mi SE 12.7 mph 18.4 mph N/A   Clear
5:33 PM 33.1 °F 23.0 °F 21.2 °F 62% 29.61 in 10.0 mi SE 15.0 mph 19.6 mph N/A   Clear
5:52 PM 33.6 °F 23.7 °F 21.0 °F 60% 29.61 in 10.0 mi ESE 15.0 mph - N/A   Clear
6:12 PM 33.8 °F 24.3 °F 21.0 °F 60% 29.61 in 10.0 mi SE 13.8 mph 21.9 mph N/A   Clear
6:33 PM 33.3 °F 23.7 °F 21.2 °F 61% 29.61 in 10.0 mi ESE 13.8 mph 19.6 mph N/A   Clear
6:52 PM 32.9 °F 24.1 °F 21.6 °F 63% 29.61 in 10.0 mi ESE 11.5 mph - N/A   Clear
7:13 PM 32.9 °F 25.3 °F 21.4 °F 63% 29.62 in 10.0 mi ESE 9.2 mph - N/A   Clear
7:32 PM 32.5 °F 24.8 °F 21.2 °F 63% 29.62 in 10.0 mi ESE 9.2 mph - N/A   Clear
7:52 PM 32.4 °F 25.3 °F 20.8 °F 63% 29.63 in 10.0 mi ESE 8.1 mph - N/A   Clear
8:13 PM 32.0 °F 23.6 °F 20.3 °F 62% 29.62 in 10.0 mi ESE 10.4 mph - N/A   Clear
8:32 PM 32.0 °F 23.6 °F 20.1 °F 62% 29.62 in 10.0 mi ESE 10.4 mph - N/A   Clear
8:52 PM 32.0 °F 23.6 °F 19.9 °F 61% 29.63 in 10.0 mi ESE 10.4 mph - N/A   Clear
9:13 PM 32.0 °F 23.0 °F 19.8 °F 61% 29.62 in 10.0 mi ESE 11.5 mph - N/A   Clear
9:32 PM 32.0 °F 23.6 °F 19.4 °F 60% 29.63 in 10.0 mi ESE 10.4 mph - N/A   Clear
9:52 PM 32.0 °F 23.0 °F 19.4 °F 60% 29.63 in 10.0 mi ESE 11.5 mph - N/A   Clear
10:13 PM 32.0 °F 23.0 °F 19.4 °F 60% 29.62 in 10.0 mi ESE 11.5 mph 16.1 mph N/A   Clear
10:32 PM 32.0 °F 23.6 °F 19.4 °F 60% 29.63 in 10.0 mi ESE 10.4 mph - N/A   Clear
10:52 PM 32.0 °F 22.5 °F 19.4 °F 60% 29.63 in 10.0 mi ESE 12.7 mph 17.3 mph N/A   Clear
11:12 PM 32.0 °F 21.6 °F 19.6 °F 60% 29.63 in 10.0 mi ESE 15.0 mph 18.4 mph N/A   Clear
11:32 PM 32.0 °F 23.0 °F 19.8 °F 61% 29.63 in 10.0 mi ESE 11.5 mph 17.3 mph N/A   Clear
11:53 PM 32.0 °F 24.2 °F 19.9 °F 61% 29.64 in 10.0 mi SE 9.2 mph - N/A   Clear